FW8685 Weather Reports


time (UTC)temp
F
wind
direction
speed
knots
gust
knots
rain 1hr
in
rain 24hr
in
rain mn
in
humidity
%
barometer
mb
20260503002523 68 224 0.9 3.5 0.00 0.04 0.02 28 1015.7
20260503002023 68 0 0.9 3.5 0.00 0.04 0.02 29 1015.8
20260503001539 69 252 1.7 4.3 0.00 0.04 0.02 26 1015.8
20260503001024 69 0 1.7 6.1 0.00 0.04 0.02 28 1015.8
20260503000526 69 256 2.6 7.0 0.00 0.04 0.02 28 1015.9
20260503000041 69 259 3.5 7.0 0.00 0.04 0.02 26 1016.0
20260502235523 69 240 2.6 7.0 0.00 0.04 0.02 28 1016.0
20260502235022 69 0 1.7 7.8 0.00 0.04 0.02 25 1016.0
20260502234543 69 265 3.5 7.8 0.00 0.04 0.02 26 1016.0
20260502234021 69 281 3.5 7.0 0.00 0.04 0.02 26 1016.0
20260502233524 69 259 3.5 7.0 0.00 0.04 0.02 27 1016.1
20260502233041 69 241 1.7 7.8 0.00 0.04 0.02 27 1016.0
20260502232522 69 313 0.9 7.8 0.00 0.04 0.02 26 1016.0
20260502232019 69 260 4.3 7.8 0.00 0.04 0.02 26 1016.1
20260502231538 69 333 2.6 9.6 0.00 0.04 0.02 28 1016.1
20260502231022 69 315 2.6 10.4 0.00 0.04 0.02 26 1016.1
20260502230524 69 302 6.1 10.4 0.00 0.04 0.02 28 1016.1
20260502230040 69 251 2.6 7.0 0.00 0.04 0.02 26 1016.1
20260502225522 69 283 1.7 7.0 0.00 0.04 0.02 27 1016.2
20260502225020 69 261 3.5 7.0 0.00 0.04 0.02 28 1016.1
20260502224538 69 360 1.7 6.1 0.00 0.04 0.02 27 1016.2
20260502224022 69 253 2.6 8.7 0.00 0.04 0.02 27 1016.1
20260502223523 69 0 1.7 8.7 0.00 0.04 0.02 30 1016.3
20260502223041 69 298 5.2 8.7 0.00 0.04 0.02 28 1016.3
20260502222523 69 336 3.5 7.0 0.00 0.04 0.02 28 1016.3
20260502222023 69 211 2.6 6.1 0.00 0.04 0.02 30 1016.3
20260502221537 69 292 2.6 7.8 0.00 0.04 0.02 30 1016.4
20260502221022 69 53 1.7 7.8 0.00 0.04 0.02 31 1016.4
20260502220522 68 5 1.7 6.1 0.00 0.04 0.02 31 1016.5
20260502220039 69 132 2.6 6.1 0.00 0.04 0.02 31 1016.4
20260502215522 69 128 0.9 7.0 0.00 0.04 0.02 32 1016.6
20260502215021 69 0 0.9 7.8 0.00 0.04 0.02 32 1016.7
20260502214540 69 294 3.5 7.8 0.00 0.04 0.02 30 1016.7
20260502214023 69 232 2.6 7.0 0.00 0.04 0.02 33 1016.7
20260502213522 69 225 2.6 7.8 0.00 0.04 0.02 30 1016.8
20260502213039 69 90 0.0 7.8 0.00 0.04 0.02 31 1016.9
20260502212524 69 28 3.5 7.8 0.00 0.04 0.02 34 1017.0
20260502212023 69 333 1.7 9.6 0.00 0.04 0.02 34 1017.1
20260502211543 69 281 3.5 11.3 0.00 0.04 0.02 29 1017.1
20260502211023 68 337 5.2 11.3 0.00 0.04 0.02 29 1017.2
20260502210522 68 275 5.2 11.3 0.00 0.04 0.02 29 1017.3
20260502210040 68 0 3.5 10.4 0.00 0.04 0.02 31 1017.4
20260502205523 68 343 1.7 11.3 0.00 0.04 0.02 31 1017.6
20260502205025 68 13 5.2 11.3 0.00 0.04 0.02 34 1017.6
20260502204540 68 360 4.3 9.6 0.00 0.04 0.02 31 1017.6
20260502204022 68 5 1.7 9.6 0.00 0.04 0.02 30 1017.6
20260502203522 68 22 5.2 12.2 0.00 0.04 0.02 35 1017.7
20260502203039 68 287 6.1 12.2 0.00 0.04 0.02 31 1017.7
20260502202522 67 52 4.3 12.2 0.00 0.04 0.02 34 1017.7
20260502202022 67 47 2.6 12.2 0.00 0.04 0.02 32 1017.8
20260502201538 68 306 5.2 10.4 0.00 0.04 0.02 33 1017.8
20260502201023 68 275 3.5 9.6 0.00 0.04 0.02 33 1017.8
20260502200523 67 306 0.9 11.3 0.00 0.04 0.02 33 1017.8
20260502200036 68 314 3.5 12.2 0.00 0.04 0.02 31 1017.8
20260502195523 68 333 6.1 12.2 0.00 0.04 0.02 35 1017.8
20260502195022 67 360 4.3 12.2 0.00 0.04 0.02 38 1017.9
20260502194541 67 78 1.7 7.0 0.00 0.04 0.02 37 1017.9
20260502194022 66 311 1.7 9.6 0.00 0.04 0.02 34 1018.0
20260502193537 67 342 3.5 12.2 0.00 0.04 0.02 34 1018.1
20260502193038 67 28 5.2 12.2 0.00 0.04 0.02 32 1018.3
20260502192526 66 22 5.2 10.4 0.00 0.04 0.02 40 1018.2
20260502192022 66 81 3.5 10.4 0.00 0.04 0.02 32 1018.3
20260502191537 67 55 6.1 12.2 0.00 0.04 0.02 34 1018.5
20260502191022 66 36 6.1 12.2 0.00 0.04 0.02 37 1018.5
20260502190522 66 339 4.3 9.6 0.00 0.04 0.02 36 1018.5
20260502190041 65 315 1.7 13.0 0.00 0.04 0.02 32 1018.5
20260502185522 66 43 4.3 13.0 0.00 0.04 0.02 38 1018.6
20260502185023 65 0 5.2 14.8 0.00 0.04 0.02 35 1018.7
20260502184549 65 269 5.2 14.8 0.00 0.04 0.02 33 1018.8
20260502184022 66 287 5.2 11.3 0.00 0.04 0.02 35 1018.8
20260502183523 65 302 3.5 10.4 0.00 0.04 0.02 35 1018.9
20260502183051 65 11 2.6 11.3 0.00 0.04 0.02 34 1019.1
20260502182524 65 311 6.1 11.3 0.00 0.04 0.02 36 1019.0
20260502182023 65 9 6.1 11.3 0.00 0.04 0.02 36 1019.1
20260502181543 64 134 4.3 8.7 0.00 0.04 0.02 38 1019.1
20260502181022 65 123 5.2 9.6 0.00 0.04 0.02 42 1018.9
20260502180523 63 159 2.6 10.4 0.00 0.04 0.02 37 1019.1
20260502164022 62 9 7.0 13.0 0.00 0.04 0.02 40 1019.8
20260502163522 62 57 5.2 10.4 0.00 0.04 0.02 46 1020.0
20260502163044 61 29 4.3 10.4 0.00 0.04 0.02 40 1019.9
20260502162525 61 48 6.1 11.3 0.00 0.04 0.02 44 1019.8
20260502162029 61 34 6.1 12.2 0.00 0.04 0.02 41 1019.9
20260502161541 61 26 7.8 12.2 0.00 0.04 0.02 41 1020.0
20260502161024 60 348 5.2 10.4 0.00 0.04 0.02 41 1019.9
20260502160525 60 51 6.1 10.4 0.00 0.04 0.02 41 1020.1
20260502152024 58 62 4.3 9.6 0.00 0.04 0.02 50 1020.2
20260502151543 58 41 4.3 9.6 0.00 0.04 0.02 48 1020.2
20260502151024 57 70 5.2 12.2 0.00 0.04 0.02 48 1020.3
20260502150524 56 79 7.0 13.0 0.00 0.04 0.02 49 1020.2
20260502130524 46 42 4.3 8.7 0.00 0.04 0.02 78 1019.4
20260502123522 43 53 3.5 7.0 0.00 0.04 0.02 86 1019.1
20260502123041 42 49 3.5 7.0 0.00 0.04 0.02 86 1019.1
20260502122523 42 45 2.6 4.3 0.00 0.04 0.02 86 1019.0
20260502122023 42 42 2.6 4.3 0.00 0.04 0.02 86 1018.9
20260502121538 42 57 2.6 5.2 0.00 0.04 0.02 86 1018.8
20260502121023 41 42 2.6 7.0 0.00 0.04 0.02 85 1018.7
20260502120523 41 42 4.3 7.0 0.00 0.04 0.02 85 1018.7
20260502115522 41 36 3.5 5.2 0.00 0.04 0.02 83 1018.5
20260502115024 41 32 2.6 3.5 0.00 0.04 0.02 83 1018.6
20260502114544 42 39 1.7 4.3 0.00 0.04 0.02 83 1018.5
20260502114022 42 30 1.7 5.2 0.00 0.04 0.02 83 1018.5
20260502113524 42 40 2.6 5.2 0.00 0.04 0.02 83 1018.4
20260502113040 42 51 2.6 5.2 0.00 0.04 0.02 84 1018.2
20260502112521 42 37 2.6 6.1 0.00 0.04 0.02 84 1018.2
20260502112027 42 42 3.5 6.1 0.00 0.04 0.02 84 1018.1
20260502111536 42 52 3.5 8.7 0.00 0.04 0.02 85 1018.1
20260502111023 42 35 4.3 8.7 0.00 0.04 0.02 85 1018.0
20260502110521 42 39 4.3 7.8 0.00 0.04 0.02 86 1018.1
20260502110039 43 41 3.5 6.1 0.00 0.04 0.02 87 1018.1
20260502105525 43 53 3.5 5.2 0.00 0.04 0.02 87 1018.0
20260502105024 43 41 3.5 6.1 0.00 0.04 0.02 87 1017.9
20260502104547 43 49 3.5 7.0 0.00 0.04 0.02 88 1018.0
20260502104025 43 43 4.3 7.0 0.00 0.04 0.02 88 1017.9
20260502103524 43 38 4.3 6.1 0.00 0.04 0.02 88 1017.9
20260502103039 43 40 4.3 5.2 0.00 0.04 0.02 89 1017.8
20260502102525 43 40 3.5 6.1 0.00 0.04 0.02 89 1017.9
20260502102024 43 46 3.5 6.1 0.00 0.04 0.02 89 1017.8
20260502101604 43 51 2.6 5.2 0.00 0.04 0.02 90 1017.9
20260502101025 43 52 2.6 5.2 0.00 0.04 0.02 90 1017.9
20260502100525 43 57 2.6 6.1 0.00 0.04 0.02 90 1017.8
20260502091024 46 52 2.6 7.8 0.00 0.04 0.02 90 1017.5
20260502090521 46 53 3.5 7.8 0.00 0.04 0.02 90 1017.5
20260502071536 50 315 1.7 3.5 0.00 0.04 0.02 87 1017.9
20260502071024 50 217 0.9 2.6 0.00 0.04 0.02 87 1017.8
20260502070523 50 216 0.0 3.5 0.00 0.04 0.02 87 1017.7
20260502070052 50 0 0.0 3.5 0.00 0.04 0.02 87 1017.4
20260502065521 50 220 1.7 3.5 0.00 0.04 0.02 86 1017.4
20260502065022 50 204 1.7 5.2 0.00 0.04 0.02 86 1017.5
20260502064538 50 284 1.7 5.2 0.00 0.04 0.02 86 1017.6
20260502064022 50 287 0.0 3.5 0.01 0.04 0.02 85 1017.3
20260502063523 51 56 0.9 3.5 0.01 0.04 0.02 84 1017.3
20260502063039 51 82 1.7 2.6 0.01 0.04 0.02 84 1017.3
20260502062523 51 0 0.9 5.2 0.01 0.04 0.02 83 1017.3
20260502062023 51 36 1.7 5.2 0.02 0.04 0.02 83 1017.3
20260502061538 51 34 2.6 7.0 0.02 0.04 0.02 83 1017.2
20260502061021 51 32 3.5 9.6 0.02 0.04 0.02 83 1017.0
20260502060525 52 0 0.9 9.6 0.02 0.04 0.02 84 1017.2
20260502060038 52 11 5.2 8.7 0.02 0.04 0.02 85 1017.4
20260502055522 52 284 4.3 9.6 0.02 0.04 0.02 84 1017.2
20260502055023 52 177 4.3 9.6 0.03 0.04 0.02 83 1017.2
20260502054540 52 44 2.6 4.3 0.03 0.04 0.02 85 1017.7
20260502054023 52 317 2.6 5.2 0.02 0.03 0.01 84 1017.7
20260502053523 52 327 2.6 5.2 0.02 0.03 0.01 83 1017.4
20260502053036 52 355 1.7 5.2 0.02 0.03 0.01 83 1017.3
20260502052521 52 322 3.5 5.2 0.03 0.03 0.01 83 1017.0
20260502052025 52 313 0.0 6.1 0.02 0.02 0.00 82 1016.6
20260502051555 52 155 1.7 7.8 0.02 0.02 0.00 82 1016.4
20260502051022 52 169 4.3 7.8 0.02 0.02 0.00 82 1016.2
20260502050520 52 154 5.2 8.7 0.02 0.02 0.00 82 1016.3
20260502050039 52 198 4.3 10.4 0.02 0.02 0.00 82 1016.4
20260502045523 52 182 5.2 10.4 0.02 0.02 0.02 82 1016.5
20260502045023 52 236 4.3 9.6 0.01 0.01 0.01 82 1016.5
20260502044554 52 173 5.2 8.7 0.01 0.01 0.01 82 1016.3
20260502044022 52 165 4.3 7.0 0.01 0.01 0.01 82 1016.6
20260502043522 52 150 2.6 5.2 0.01 0.01 0.01 81 1016.7
20260502043038 52 112 0.9 3.5 0.01 0.01 0.01 81 1016.8
20260502042522 52 112 1.7 3.5 0.00 0.00 0.00 80 1016.7
20260502042022 52 90 0.9 4.3 0.00 0.00 0.00 80 1016.8
20260502041537 52 84 2.6 6.1 0.00 0.00 0.00 80 1016.7
20260502041023 52 138 3.5 6.1 0.00 0.00 0.00 80 1016.5
20260502040527 53 144 3.5 6.1 0.00 0.00 0.00 80 1016.5
20260502040045 53 133 2.6 7.0 0.00 0.00 0.00 79 1016.5
20260502035523 53 151 3.5 7.0 0.00 0.00 0.00 79 1016.6
20260502035024 54 159 4.3 6.1 0.00 0.00 0.00 78 1016.6
20260502034538 54 184 2.6 3.5 0.00 0.00 0.00 78 1016.8
20260502034023 54 144 0.9 3.5 0.00 0.00 0.00 77 1016.8
20260502033522 54 111 0.9 2.6 0.00 0.00 0.00 76 1017.2
20260502033041 54 340 0.0 2.6 0.00 0.00 0.00 76 1017.6
20260502032522 54 321 0.0 2.6 0.00 0.00 0.00 76 1017.6
20260502032022 54 0 0.0 1.7 0.00 0.00 0.00 74 1017.3
20260502031540 54 0 0.0 2.6 0.00 0.00 0.00 72 1017.2
20260502031022 54 131 0.9 3.5 0.00 0.00 0.00 71 1016.8
20260502030523 54 131 1.7 3.5 0.00 0.00 0.00 72 1016.7
20260502030039 54 131 1.7 3.5 0.00 0.00 0.00 73 1016.5
20260502025522 54 129 1.7 4.3 0.00 0.00 0.00 73 1016.4
20260502025022 55 123 1.7 4.3 0.00 0.00 0.00 72 1016.4
20260502024541 55 161 1.7 5.2 0.00 0.00 0.00 69 1016.4
20260502024022 55 162 1.7 6.1 0.00 0.00 0.00 69 1016.4
20260502023522 55 155 3.5 6.1 0.00 0.00 0.00 69 1016.4
20260502023044 56 149 4.3 6.1 0.00 0.00 0.00 69 1016.3
20260502022521 56 149 4.3 6.1 0.00 0.00 0.00 68 1016.4
20260502022023 56 173 2.6 5.2 0.00 0.00 0.00 66 1016.3
20260502021538 56 190 0.9 2.6 0.00 0.00 0.00 65 1016.3
20260502021020 56 288 0.0 4.3 0.00 0.00 0.00 64 1016.3
20260502020523 56 0 0.9 9.6 0.00 0.00 0.00 65 1016.1
20260502020048 56 47 3.5 9.6 0.00 0.00 0.00 64 1016.0
20260502015523 56 48 5.2 8.7 0.00 0.00 0.00 63 1015.9
20260502015024 57 33 3.5 9.6 0.00 0.00 0.00 62 1015.9
20260502014538 57 28 6.1 10.4 0.00 0.00 0.00 60 1015.8
20260502014049 57 51 6.1 10.4 0.00 0.00 0.00 59 1015.6
20260502013522 57 59 7.0 10.4 0.00 0.00 0.00 59 1015.5
20260502013053 57 46 6.1 10.4 0.00 0.00 0.00 57 1015.5
20260502012522 57 53 3.5 9.6 0.00 0.00 0.00 57 1015.4
20260502012022 57 54 4.3 9.6 0.00 0.00 0.00 57 1015.2
20260502011543 58 60 3.5 10.4 0.00 0.00 0.00 57 1015.1
20260502011021 58 45 6.1 10.4 0.00 0.00 0.00 56 1015.0
20260502010521 58 60 7.0 11.3 0.00 0.00 0.00 56 1015.1
20260502010036 58 61 7.0 11.3 0.00 0.00 0.00 56 1015.1
20260502005521 58 41 6.1 8.7 0.00 0.00 0.00 56 1015.2
20260502005023 58 38 5.2 8.7 0.00 0.00 0.00 56 1015.3
20260502004538 58 29 5.2 8.7 0.00 0.00 0.00 55 1015.2
20260502004022 58 30 4.3 11.3 0.00 0.00 0.00 54 1015.0
20260502003522 59 41 6.1 12.2 0.00 0.00 0.00 54 1015.0
20260502003039 59 28 7.0 13.0 0.00 0.00 0.00 54 1015.0